Domov               UVHVVR             MKGP            O straneh              
ZDRAVSTVENO VARSTVO RASTLIN
  MREŽA AGROMET. POSTAJ
 ► PROGNOSTIČNA OBVESTILA
AGROMETEOROLOŠKI PODATKI -
ARSO
OBVLADOVANJE TVEGANJ ZARADI
NEUGODNIH VREMENSKIH RAZMER
  ► NARAVNE NESREČE
  ► SUŠA/MOČA
  ► NAMAKANJE
  ► ŽLED (gozdarstvo)
KARTOGRAFSKI PRIKAZI
SPLETNE POVEZAVE
PROJEKTI IN PUBLIKACIJE

AGROMETEOROLOŠKA MREŽA: VREMENSKE POSTAJE IN FENOLOŠKA OPAZOVANJA

Pregled podatkov za lokacijo Artiče, meteorološka postaja 42800

Pregled senzorjev na lokaciji

ID Ime Zadnja
vrednost
Datum
zadnje
spremembe
Tip
senzorja
2446 Temperatura 2 m ( °C) 13,32 °C 24.10.2017 10:00 50YA
2447 Relativna vlaga 2 m (% RH) 49,12 % RH 24.10.2017 10:00 50YA
2448 Omočenost lista (U) 0 U 24.10.2017 10:00 A730WET
3778 Padavine 0.2 mm (mm) 0 mm 24.10.2017 10:00 Rain-O-Matic

Pregled podatkov zadnjih 24 ur

Zap.
št.
Datum in čas Artiče
Omočenost
lista
Padavine
0.2
mm
Relativna
vlaga
2
m
Temperatura
2
m
0 24.10.2017 09:00 0 0 49,12 13,32
1 24.10.2017 08:30 0 0 51,99 12,33
2 24.10.2017 08:00 0 0 57,84 10,73
3 24.10.2017 07:30 0 0 60,43 9,91
4 24.10.2017 07:00 0 0 60,5 9,85
5 24.10.2017 06:30 0 0 59,41 10,06
6 24.10.2017 06:00 0 0 61,72 9,56
7 24.10.2017 05:30 0 0 61,24 9,61
8 24.10.2017 05:00 0 0 58,72 10,1
9 24.10.2017 04:30 0 0 58,38 10,09
10 24.10.2017 04:00 0 0 59,14 10,01
11 24.10.2017 03:30 0 0 61,61 9,55
12 24.10.2017 03:00 0 0 62,65 9,43
13 24.10.2017 02:30 0 0 61,37 9,95
14 24.10.2017 02:00 0 0 57,9 10,63
15 24.10.2017 01:30 0 0 59,15 10,36
16 24.10.2017 01:00 0 0 57,74 10,65
17 24.10.2017 00:30 0 0 56,79 10,88
18 24.10.2017 00:00 0 0 57,13 10,7
19 23.10.2017 23:30 0 0 54,07 11,23
20 23.10.2017 23:00 0 0 54,79 11,03
21 23.10.2017 22:30 0 0 55,33 11,08
22 23.10.2017 22:00 0 0 53,91 11,45
23 23.10.2017 21:30 0 0 52,66 11,42
24 23.10.2017 21:00 0 0 52,34 11,41
25 23.10.2017 20:30 0 0 58,65 10,66
26 23.10.2017 20:00 0 0 64,26 9,88
27 23.10.2017 19:30 0 0 68,35 9,87
28 23.10.2017 19:00 0 0 75,72 9,33
29 23.10.2017 18:30 0 0 76,04 9,43
30 23.10.2017 18:00 0 0 72,21 9,82
31 23.10.2017 17:30 4 0 89,21 9,19
32 23.10.2017 17:00 4 0 93,26 9,31
33 23.10.2017 16:30 3 0 96,34 9,36
34 23.10.2017 16:00 2 0 95,42 9,56
35 23.10.2017 15:30 1 0 93,15 9,72
36 23.10.2017 15:00 1 0 92,61 9,63
37 23.10.2017 14:30 0 0 90,93 9,68
38 23.10.2017 14:00 0 0 88,99 9,7
39 23.10.2017 13:30 0 0 90,56 9,52
40 23.10.2017 13:00 1 0 92,45 9,42
41 23.10.2017 12:30 9 0 94,74 9,27
42 23.10.2017 12:00 10 0,2 95,87 8,97
43 23.10.2017 11:30 10 0 98,14 8,55
© 2011 Ministrstvo za kmetijstvo, gozdarstvo in prehrano. Vse pravice pridržane.